P/2011 W1 ( PanSTARRS )

Japanese version
Home page
Updated on September 8, 2013

---------------------------------------------------------------------

* Profile

Discovery Date November 26, 2011
Magnitude 20.1 mag
Discoverer Pan-STARRS 1 telescope (Haleakala)

* Pictures

* Orbital Elements

Epoch 2012 Feb. 3.0 TT = JDT 2455960.5
T 2012 Jan. 22.56333 TT                                 MPC
q   3.3120593            (2000.0)            P               Q
n   0.09812746     Peri.  282.48127     +0.09762048     -0.99501928
a   4.6552428      Node   161.87976     +0.93643831     +0.08497283
e   0.2885314      Incl.    3.71859     +0.33697704     +0.05211763
P  10.0
From 160 observations 2011 Nov. 23-2013 Feb. 9, mean residual 0".5.

* Magnitudes Graph

        m1 = 6.0 + 5 log d + 20.0 log r

---------------------------------------------------------------------

The orbital elements are published on M.P.E.C. 2013-C52.
The magnitudes graphs are made with Comet for Windows.

---------------------------------------------------------------------

Copyright(C) Seiichi Yoshida (comet@aerith.net). All rights reserved.